カタログに戻る

CZ-4 DEB

運用中SSO
NORAD 20867·DEBRIS·🇨🇳 China

打ち上げ Sep 3, 1990 から Taiyuan Satellite Launch Center

Loading…

次のパス (今後24時間)

TLE

最新Source: Space-Track

元期: Sep 14, 2026, 10:12 UTC

1 20867U 90081AF  26257.42503160  .00000204  00000-0  14304-3 0  9995
2 20867  98.9707 237.3516 0104052 104.8903  47.5490 14.06331721839129

AllMySatでCZ-4 DEBをリアルタイム追跡

Download on the App Store